This is the latest recevied weather packets stored in our database for station/object GCEMA. If no packets are shown the sender has not sent any weather packets the latest 10 day(s).
| Time | Temp. | Humidity | Pressure | Rain* | Wind** | Luminosity | Snow |
|---|---|---|---|---|---|---|---|
| 1778077379 | 13.33° C | - | 1011.9 hPa | 0 mm | 0 m/s | - | - |
| 1778077198 | 12.22° C | - | 1011.9 hPa | 0 mm | 0 m/s | - | - |
| 1778077016 | 13.33° C | - | 1011.7 hPa | 0 mm | 0 m/s | - | - |
| 1778076837 | 12.78° C | - | 1011.6 hPa | 0 mm | 0 m/s | - | - |
| 1778076659 | 12.22° C | - | 1011.5 hPa | 0 mm | 0 m/s | - | - |
| 1778076481 | 13.89° C | - | 1011.3 hPa | 0 mm | 0 m/s | - | - |
| 1778076298 | 13.33° C | - | 1011.1 hPa | 0 mm | 0 m/s | - | - |
| 1778076116 | 13.33° C | - | 1011.1 hPa | 0 mm | 0 m/s | - | - |
| 1778075936 | 13.33° C | - | 1011.1 hPa | 0 mm | 0 m/s | - | - |
| 1778075757 | 13.89° C | - | 1011 hPa | 0 mm | 0 m/s | - | - |
| 1778075577 | 13.89° C | - | 1010.9 hPa | 0 mm | 0 m/s | - | - |
| 1778075398 | 13.33° C | - | 1011 hPa | 0 mm | 0 m/s | - | - |
| 1778075216 | 12.22° C | - | 1011.2 hPa | 0 mm | 0 m/s | - | - |
| 1778075036 | 12.22° C | - | 1011.2 hPa | 0 mm | 0 m/s | - | - |
| 1778074677 | 12.78° C | - | 1011.2 hPa | 0 mm | 0 m/s | - | - |
| 1778074495 | 12.22° C | - | 1011.1 hPa | 0 mm | 0 m/s | - | - |
| 1778074312 | 12.22° C | - | 1011 hPa | 0 mm | 0 m/s | - | - |
| 1778074133 | 11.67° C | - | 1010.9 hPa | 0 mm | 0 m/s | - | - |
| 1778073953 | 11.11° C | - | 1011 hPa | 0 mm | 0 m/s | - | - |
| 1778073595 | 11.11° C | - | 1010.9 hPa | 0 mm | 0 m/s | - | - |
| 1778073412 | 11.67° C | - | 1011 hPa | 0 mm | 0 m/s | - | - |
| 1778073233 | 12.22° C | - | 1010.5 hPa | 0 mm | 0 m/s | - | - |
| 1778073053 | 12.22° C | - | 1010.2 hPa | 0 mm | 0 m/s | - | - |
| 1778072874 | 13.33° C | - | 1010 hPa | 0 mm | 0 m/s | - | - |
| 1778072694 | 12.22° C | - | 1010.1 hPa | 0 mm | 0 m/s | - | - |
* Rain latest hour (hover to see other rain measurements)
** Current wind speed in m/s (hover to see current wind gust speed)